Home   Weather   Stellenbosch   Past weeks
Flag for South Africa

Past Weather in Stellenbosch, South Africa — Yesterday and Last 2 Weeks

Now
66 °F

Passing clouds.


Feels Like: 66 °F
Forecast: 73 / 59 °F
Wind: 9 mph from South

Location: Cape Town International Airport

Current Time: Mar 20, 2019 at 12:23:29 am

Latest Report: Mar 19, 2019 at 11:00 pm


Visibility: N/A

Pressure: 29.95 "Hg

Humidity: 88%

Dew Point: 63 °F

Location of StellenboschLocation

Past Weather in Stellenbosch — Graph

°F

Stellenbosch Temperature Yesterday

Maximum temperature yesterday: 75 °F (at 12:00 pm)
Minimum temperature yesterday: 61 °F (at 3:00 am)
Average temperature yesterday: 68 °F

High & Low Weather Summary for the Past Weeks

 TemperatureHumidityPressure
High90 °F (Mar 15, 2:00 pm)100% (Mar 12, 12:44 am)30.18 "Hg (Mar 12, 12:44 am)
Low57 °F (Mar 12, 9:00 am)38% (Mar 15, 2:00 pm)29.83 "Hg (Mar 6, 3:00 am)
Average67 °F78%29.96 "Hg
* Reported Mar 4 10:00 pm — Mar 19 10:00 pm, Stellenbosch. Weather by CustomWeather, © 2019

Note: Actual official high and low records may vary slightly from our data, if they occured in-between our weather recording intervals... More about our weather records

Advertising

Stellenbosch Weather History for the Previous 24 Hours

Scroll right to see more
 ConditionsComfort  
Time TempWeatherWind HumidityBarometerVisibility
10:00 pm
Tue, Mar 19
68 °FPassing clouds.9 mph78%29.95 "HgN/A
9:00 pm68 °FPassing clouds.12 mph83%29.95 "HgN/A
8:00 pm68 °FPassing clouds.13 mph83%29.92 "HgN/A
7:00 pm72 °FPassing clouds.15 mph69%29.92 "HgN/A
6:00 pm72 °FScattered clouds.7 mph73%29.89 "HgN/A
5:00 pm72 °FScattered clouds.8 mph73%29.89 "HgN/A
4:00 pm73 °FPassing clouds.14 mph69%29.86 "HgN/A
2:00 pm75 °FPassing clouds.14 mph65%29.89 "HgN/A
1:00 pm75 °FPassing clouds.15 mph69%29.89 "HgN/A
12:00 pm75 °FSunny.15 mph69%29.89 "Hg10 mi
11:00 am73 °FPassing clouds.8 mph69%29.89 "HgN/A
10:00 am73 °FPassing clouds.8 mph74%29.89 "Hg5 mi
9:28 am72 °FPassing clouds.5 mph78%29.89 "Hg5 mi
9:00 am68 °FPassing clouds.3 mph88%29.89 "Hg4 mi
8:54 am68 °FPassing clouds.3 mph88%29.89 "Hg4 mi
8:26 am64 °FFog.5 mph94%29.86 "Hg2 mi
8:00 am63 °FFog.5 mph94%29.89 "Hg1 mi
7:24 am61 °FFog.5 mph100%29.86 "Hg0 mi
7:05 am61 °FFog.6 mph100%29.86 "Hg1 mi
7:00 am61 °FFog.5 mph94%29.86 "Hg2 mi
6:00 am63 °FPassing clouds.5 mph94%29.83 "HgN/A
5:00 am63 °FClear.5 mph94%29.83 "Hg10 mi
4:00 am63 °FClear.3 mph94%29.83 "Hg10 mi
3:00 am61 °FClear.6 mph94%29.83 "Hg10 mi
2:00 am64 °FClear.1 mph88%29.86 "Hg10 mi
1:00 am64 °FClear.13 mph94%29.89 "Hg10 mi
12:00 am64 °FClear.10 mph94%29.89 "Hg10 mi
Weather by CustomWeather, © 2019

See weather overview